TimeEST,TemperatureF,Dew PointF,Humidity,Sea Level PressureIn,VisibilityMPH,Wind Direction,Wind SpeedMPH,Gust SpeedMPH,PrecipitationIn,Events,Conditions,WindDirDegrees,DateUTC
12:52 AM,25.0,19.0,78,29.94,10.0,Calm,Calm,-,N/A,,Clear,0,2014-03-08 05:52:00
1:52 AM,24.1,18.0,77,29.91,10.0,NW,3.5,-,N/A,,Clear,310,2014-03-08 06:52:00
2:52 AM,23.0,17.1,78,29.88,10.0,WNW,4.6,-,N/A,,Clear,290,2014-03-08 07:52:00
3:52 AM,21.0,16.0,81,29.86,10.0,Calm,Calm,-,N/A,,Clear,0,2014-03-08 08:52:00
4:52 AM,19.9,16.0,85,29.84,10.0,West,3.5,-,N/A,,Clear,280,2014-03-08 09:52:00
5:52 AM,19.9,15.1,81,29.83,10.0,Calm,Calm,-,N/A,,Clear,0,2014-03-08 10:52:00
6:52 AM,21.0,16.0,81,29.83,10.0,NNW,4.6,-,N/A,,Clear,330,2014-03-08 11:52:00
7:52 AM,28.9,19.9,69,29.83,10.0,Calm,Calm,-,N/A,,Clear,0,2014-03-08 12:52:00
8:52 AM,36.0,21.9,57,29.82,10.0,Calm,Calm,-,N/A,,Mostly Cloudy,0,2014-03-08 13:52:00
9:52 AM,43.0,23.0,45,29.80,10.0,Calm,Calm,-,N/A,,Partly Cloudy,0,2014-03-08 14:52:00
10:52 AM,48.0,23.0,37,29.78,10.0,NW,8.1,-,N/A,,Scattered Clouds,310,2014-03-08 15:52:00
11:52 AM,48.9,24.1,38,29.76,10.0,WNW,8.1,-,N/A,,Mostly Cloudy,300,2014-03-08 16:52:00
12:52 PM,50.0,23.0,35,29.73,10.0,NW,3.5,-,N/A,,Clear,310,2014-03-08 17:52:00
1:52 PM,51.1,21.9,32,29.72,10.0,West,9.2,-,N/A,,Clear,270,2014-03-08 18:52:00
2:52 PM,51.1,23.0,33,29.72,10.0,NNW,9.2,-,N/A,,Partly Cloudy,340,2014-03-08 19:52:00
3:52 PM,50.0,23.0,35,29.73,10.0,NNW,12.7,-,N/A,,Overcast,340,2014-03-08 20:52:00
4:52 PM,48.9,24.1,38,29.74,10.0,North,15.0,19.6,N/A,,Overcast,350,2014-03-08 21:52:00
5:52 PM,45.0,24.1,44,29.79,10.0,North,9.2,-,N/A,,Scattered Clouds,350,2014-03-08 22:52:00
6:52 PM,43.0,24.1,47,29.81,10.0,NNW,10.4,-,N/A,,Overcast,340,2014-03-08 23:52:00
7:52 PM,39.9,25.0,55,29.83,10.0,NW,5.8,-,N/A,,Partly Cloudy,320,2014-03-09 00:52:00
8:52 PM,39.9,25.0,55,29.86,10.0,NNW,9.2,-,N/A,,Overcast,330,2014-03-09 01:52:00
9:52 PM,37.0,26.1,65,29.86,10.0,North,5.8,-,N/A,,Overcast,10,2014-03-09 02:52:00
10:52 PM,36.0,25.0,64,29.87,10.0,North,5.8,-,N/A,,Clear,360,2014-03-09 03:52:00
11:52 PM,35.1,19.9,54,29.88,10.0,NNW,9.2,17.3,N/A,,Partly Cloudy,330,2014-03-09 04:52:00